Regional Weather Roundup
Issued by NWS

Home | Current Version | Previous Version | Graphics & Text | Print | Product List | Glossary On
Versions: 1 2 3 4 5 6 7 8 9 10 11 12 13 14 15 16 17 18 19 20 21 22 23 24 25 26 27 28 29 30 31 32 33 34 35 36 37 38 39 40 41 42 43 44 45 46 47 48 49 50
000
ASUS45 KABQ 231701
RWRNM
NEW MEXICO REGIONAL WEATHER ROUNDUP
NATIONAL WEATHER SERVICE ALBUQUERQUE NM
1100 AM MDT WED AUG 23 2017

NOTE: "FAIR" MEANS FEW OR NO CLOUDS BELOW 12,000 FEET AGL WITH NO
       SIGNIFICANT WEATHER OR OBSTRUCTIONS TO VISION.

      THIS PRODUCT IS RELEASED AS TWO VERSIONS.  ONE VERSION NEAR
      THE TOP OF THE HOUR CONTAINING PRELIMINARY DATA FROM ALBUQUERQUE
      AND OTHER STATIONS.  A FINAL VERSION WITH ADDITIONAL DATA IS
      ISSUED ABOUT 10 MINUTES AFTER THE HOUR.

NMZ501-503-504-510>518-231800-
NORTHWEST PLATEAU/NORTHCENTRAL MOUNTAINS

CITY           SKY/WX    TMP DP  RH WIND       PRES   REMARKS
FARMINGTON     FAIR      76  53  44 E8        30.27F
LOS ALAMOS     FAIR      68  51  56 NE6       30.41F
SANTA FE       FAIR      73  53  49 VRB3      30.34F
TAOS           FAIR      68  51  54 W3        30.43F
ANGEL FIRE     FAIR      62  53  71 CALM      30.47F

$$
NMZ402-403-502-505>509-231800-
WESTCENTRAL MOUNTAINS/SOUTHWEST MOUNTAINS

CITY           SKY/WX    TMP DP  RH WIND       PRES   REMARKS
GALLUP         FAIR      76  53  44 CALM      30.33F
GRANTS         FAIR      74  55  50 SE10      30.37F
SILVER CITY    FAIR      78  58  49 S6        30.29S

$$
NMZ407-409-411-412-231800-
SOUTHERN DESERTS

CITY           SKY/WX    TMP DP  RH WIND       PRES   REMARKS
DEMING           N/A     84  63  49 E12       30.20F
LAS CRUCES     FAIR      82  60  47 E5        30.22F
HOLLOMAN AFB   FAIR      84  65  53 SE6       30.20F
ALAMOGORDO     FAIR      81  63  54 S7        30.20S
T OR C         FAIR      80  59  48 CALM      30.23F

$$
NMZ519>523-231800-
CENTRAL VALLEYS/CENTRAL HIGHLANDS

CITY           SKY/WX    TMP DP  RH WIND       PRES   REMARKS
ALBUQUERQUE    PTSUNNY   75  58  55 S5        30.30F
DOUBLE EAGLE   PTSUNNY   73  57  56 CALM      30.33F
CLINES CORNERS FAIR      72  52  49 NW6       30.39F
BELEN          FAIR      76  56  49 CALM      30.28F
SOCORRO        FAIR      78  55  45 N5        30.25F

$$
NMZ524>526-539-540-231800-
SOUTHCENTRAL MOUNTAINS

CITY           SKY/WX    TMP DP  RH WIND       PRES   REMARKS
RUIDOSO        FAIR      73  50  43 NE8       30.39S

$$
NMZ527>531-231800-
NORTHEAST HIGHLANDS/NORTHEAST PLAINS

CITY           SKY/WX    TMP DP  RH WIND       PRES   REMARKS
LAS VEGAS      FAIR      67  56  67 S5        30.38S
RATON          FAIR      66  56  70 VRB7      30.32F
CLAYTON        CLOUDY    70  63  78 S8        30.28S

$$
NMZ532>537-231800-
EASTCENTRAL PLAINS

CITY           SKY/WX    TMP DP  RH WIND       PRES   REMARKS
SANTA ROSA     PTSUNNY   72  60  65 CALM      30.26F
TUCUMCARI      FAIR      76  66  71 E8        30.22S
CANNON AFB     FAIR      76  70  83 E6        30.25S
CLOVIS AIRPORT PTSUNNY   75  66  73 E9        30.25S

$$
NMZ028-029-538-231800-
SOUTHEAST PLAINS

CITY           SKY/WX    TMP DP  RH WIND       PRES   REMARKS
ROSWELL        FAIR      79  65  62 VRB5      30.20F
ARTESIA        PTSUNNY   79  64  61 E7G14     30.19F
CARLSBAD       FAIR      78  67  68 N7        30.17S
HOBBS          MOSUNNY   79  63  57 NE8       30.20F


$$




USA.gov is the U.S. government's official web portal to all federal, state and local government web resources and services.